THOR ABLESTAR DEB, 655

Orbit data source: Space-Track

THOR ABLESTAR DEB, 655 is space debris in LEO originally from a launch on Thu, 29 Jun 1961 UTC launched from the Air Force Eastern Test Range (AFETR). Debris objects in space refer to the collection of defunct objects orbiting the Earth. Examples of debris include non-operational satellites, rocket bodies, and fragments generated from explosions, collisions, or faulty payload assembly.

Loading next visibility...
Identifier
655, 1961-015HG
Orbit
LEO
Country
Flag of USUS
Related business
Manufacturer
Unknown
Mission
Spacecraft
Bus & Motor
Unknown
Mass
Unknown
Launch date (UTC)
1961-06-29 (64 years ago)
Launch vehicle
Unknown
Launch site
Air Force Eastern Test Range (AFETR)
Object type
Payload
Rocket body
Debris
Shape & HBR
Unknown shape, 0.1 m
Radar Cross Section
Small (<0.1 m²)

Expand to show TLE details & history
Last TLE update: 13 hours ago

TLE from 13 hours ago
0 THOR ABLESTAR DEB
1 00655U 61015HG  25309.19495992  .00000619  00000-0  14262-2 0  9999
2 00655  67.2587 348.4967 0361772 114.8478 309.8948 13.09368244 57602
Epoch: 2025-11-05T04:40Z
TLE epoch observation values (Epoch: 2025-11-05T04:40:44.537Z)
Latitude
54.23584°
Longitude
-90.98447°
Altitude
1,063.334 km
Speed
7.408 km/s
True Right ascension
01h 35m 29s
True Declination
54° 04' 45"
Sunlit
Object was in full shadow at epoch
Visualization orbit readout
Latitude
Unknown
Longitude
Unknown
Altitude
Unknown
Speed
Unknown
Apparent Right ascension
Unknown
Apparent Declination
Unknown
Sunlit
N/A
Visualization observer readout
Local Sidereal Time
14:02:23
Azimuth
Unknown
Elevation
Unknown
Doppler factor
Unknown
Orbital elements
Apogee altitude
1,499.032 km
Perigee altitude
948.984 km
Semi-major axis
7,602.145 km
Eccentricity
0.03618
Inclination
67.2587°
RAAN
348.4967°
Arg. of periapsis
114.8478°
True anomaly
306.6211°
Mean anomaly
309.8948°
Eccentric anomaly
308.26738°
Mean motion
3.27445 °/min
Orbital period
109.94 mins
BSTAR
0.0014262
Loading maneuver chart data...
Computing Atmospheric mass density...

Documentation

Showing up to 5 results
|